,,,PA_Meas_PMT16A,,PR_Meas_QMR101_102,,RH_Meas_QMH101,,SR_Meas_QMS101,,TA_Meas_QMH101,,GenWind,,GenWind,
date,time,status,PA,status,PR,status,RH,status,SR,status,TA,status,DirAvg,status,SpdAvg,
2012-06-27, 00:00:05,VALID,1010.1,VALID,0,VALID,82.7928,VALID,0,VALID,26.3061,VALID,204,VALID,0.504297,
2012-06-27, 00:01:05,VALID,1010.11,VALID,0,VALID,82.8538,VALID,0,VALID,26.2866,VALID,157,VALID,0.887109,
2012-06-27, 00:02:04,VALID,1010.13,VALID,0,VALID,82.9529,VALID,0,VALID,26.2866,VALID,181,VALID,1.07422,
2012-06-27, 00:03:04,VALID,1010.14,VALID,0,VALID,83.1665,VALID,0,VALID,26.2671,VALID,186,VALID,0.643359,
2012-06-27, 00:04:04,VALID,1010.15,VALID,0,VALID,83.2046,VALID,0,VALID,26.2476,VALID,200,VALID,0.634766,
2012-06-27, 00:05:04,VALID,1010.16,VALID,0,VALID,83.2961,VALID,0,VALID,26.2671,VALID,177,VALID,0.327734,
2012-06-27, 00:06:04,VALID,1010.15,VALID,0,VALID,83.502,VALID,0,VALID,26.2476,VALID,177,VALID,0.105859,
2012-06-27, 00:07:04,VALID,1010.17,VALID,0,VALID,83.4715,VALID,0,VALID,26.2281,VALID,177,VALID,0.294531,
2012-06-27, 00:08:04,VALID,1010.19,VALID,0,VALID,83.5935,VALID,0,VALID,26.2086,VALID,177,VALID,0.1875,
2012-06-27, 00:09:04,VALID,1010.19,VALID,0,VALID,83.6545,VALID,0,VALID,26.2086,VALID,168,VALID,0.682813,
2012-06-27, 00:10:04,VALID,1010.21,VALID,0,VALID,83.8299,VALID,0,VALID,26.1891,VALID,168,VALID,0.712891,
2012-06-27, 00:11:04,VALID,1010.25,VALID,0,VALID,83.9519,VALID,0,VALID,26.1696,VALID,152,VALID,0.927734,
2012-06-27, 00:12:04,VALID,1010.24,VALID,0,VALID,84.0053,VALID,0,VALID,26.1286,VALID,152,VALID,0.633594,
2012-06-27, 00:13:04,VALID,1010.23,VALID,0,VALID,84.1426,VALID,0,VALID,26.1501,VALID,153,VALID,0.241016,
2012-06-27, 00:14:04,VALID,1010.22,VALID,0,VALID,84.1883,VALID,0,VALID,26.1306,VALID,153,VALID,0.133594,
2012-06-27, 00:15:04,VALID,1010.22,VALID,0,VALID,84.3866,VALID,0,VALID,26.1111,VALID,153,VALID,0.454297,
2012-06-27, 00:16:04,VALID,1010.19,VALID,0,VALID,84.5544,VALID,0,VALID,26.1111,VALID,151,VALID,0.521875,
2012-06-27, 00:17:04,VALID,1010.18,VALID,0,VALID,84.7755,VALID,0,VALID,26.1131,VALID,158,VALID,0.55,
2012-06-27, 00:18:04,VALID,1010.19,VALID,0,VALID,84.9814,VALID,0,VALID,26.0721,VALID,161,VALID,0.68125,
2012-06-27, 00:19:04,VALID,1010.16,VALID,0,VALID,85.3169,VALID,0,VALID,26.0721,VALID,161,VALID,0.200781,
2012-06-27, 00:20:04,VALID,1010.16,VALID,0,VALID,85.6448,VALID,0,VALID,26.0526,VALID,161,VALID,0,
2012-06-27, 00:21:04,VALID,1010.15,VALID,0,VALID,85.6677,VALID,0,VALID,26.0331,VALID,161,VALID,0,
2012-06-27, 00:22:04,VALID,1010.17,VALID,0,VALID,85.9575,VALID,0,VALID,26.0136,VALID,161,VALID,0,
2012-06-27, 00:23:04,VALID,1010.18,VALID,0,VALID,86.0948,VALID,0,VALID,25.9941,VALID,161,VALID,0,
2012-06-27, 00:24:04,VALID,1010.18,VALID,0,VALID,86.5599,VALID,0,VALID,25.9941,VALID,161,VALID,0.0433594,
2012-06-27, 00:25:04,VALID,1010.18,VALID,0,VALID,87.7953,VALID,0,VALID,25.9531,VALID,161,VALID,0.306641,
2012-06-27, 00:26:04,VALID,1010.17,VALID,0,VALID,89.0612,VALID,0,VALID,25.9356,VALID,161,VALID,0.0410156,
2012-06-27, 00:27:04,VALID,1010.18,VALID,0,VALID,90.2127,VALID,0,VALID,25.8556,VALID,161,VALID,0.352344,
2012-06-27, 00:28:04,VALID,1010.19,VALID,0,VALID,91.2116,VALID,0,VALID,25.7991,VALID,161,VALID,0.326953,
2012-06-27, 00:29:04,VALID,1010.17,VALID,0,VALID,92.1954,VALID,0,VALID,25.7211,VALID,161,VALID,0.337891,
2012-06-27, 00:30:04,VALID,1010.17,VALID,0,VALID,93.1638,VALID,0,VALID,25.6236,VALID,161,VALID,0.151953,
2012-06-27, 00:31:04,VALID,1010.18,VALID,0,VALID,94.0942,VALID,0,VALID,25.5651,VALID,161,VALID,0,
2012-06-27, 00:32:04,VALID,1010.16,VALID,0,VALID,94.9559,VALID,0,VALID,25.4871,VALID,161,VALID,0,
2012-06-27, 00:33:04,VALID,1010.11,VALID,0,VALID,95.6498,VALID,0,VALID,25.4287,VALID,161,VALID,0,
2012-06-27, 00:34:04,VALID,1010.11,VALID,0,VALID,96.3438,VALID,0,VALID,25.3293,VALID,161,VALID,0,
2012-06-27, 00:35:04,VALID,1010.1,VALID,0,VALID,97.0987,VALID,0,VALID,25.3312,VALID,161,VALID,0,
2012-06-27, 00:36:04,VALID,1010.07,VALID,0,VALID,97.663,VALID,0,VALID,25.3117,VALID,161,VALID,0,
2012-06-27, 00:37:04,VALID,1010.05,VALID,0,VALID,98.2045,VALID,0,VALID,25.2727,VALID,161,VALID,0,
2012-06-27, 00:38:04,VALID,1010.03,VALID,0,VALID,98.7611,VALID,0,VALID,25.2532,VALID,161,VALID,0,
2012-06-27, 00:39:04,VALID,1010,VALID,0,VALID,99.2187,VALID,0,VALID,25.2123,VALID,161,VALID,0,
2012-06-27, 00:40:04,VALID,1009.97,VALID,0,VALID,99.6533,VALID,0,VALID,25.2142,VALID,161,VALID,0,
2012-06-27, 00:41:04,VALID,1009.96,VALID,0,VALID,99.905,VALID,0,VALID,25.1947,VALID,161,VALID,0,
2012-06-27, 00:42:04,VALID,1009.97,VALID,0,VALID,100.218,VALID,0,VALID,25.1557,VALID,161,VALID,0,
2012-06-27, 00:43:04,VALID,1009.94,VALID,0,VALID,100.767,VALID,0,VALID,25.1557,VALID,161,VALID,0,
2012-06-27, 00:44:04,VALID,1009.94,VALID,0,VALID,100.95,VALID,0,VALID,25.1362,VALID,161,VALID,0,
2012-06-27, 00:45:04,VALID,1009.94,VALID,0,VALID,101.11,VALID,0,VALID,25.1167,VALID,161,VALID,0,
2012-06-27, 00:46:04,VALID,1009.94,VALID,0,VALID,101.354,VALID,0,VALID,25.0973,VALID,161,VALID,0,
2012-06-27, 00:47:04,VALID,1009.95,VALID,0,VALID,101.613,VALID,0,VALID,25.0973,VALID,161,VALID,0,
2012-06-27, 00:48:04,VALID,1009.92,VALID,0,VALID,101.842,VALID,0,VALID,25.0778,VALID,161,VALID,0,
2012-06-27, 00:49:04,VALID,1009.94,VALID,0,VALID,102.071,VALID,0,VALID,25.0583,VALID,161,VALID,0.504297,
2012-06-27, 00:50:04,VALID,1009.93,VALID,0,VALID,102.254,VALID,0,VALID,24.9979,VALID,161,VALID,0.492969,
2012-06-27, 00:51:04,VALID,1009.94,VALID,0,VALID,102.277,VALID,0,VALID,24.9979,VALID,149,VALID,0.5125,
2012-06-27, 00:52:04,VALID,1009.91,VALID,0,VALID,102.383,VALID,0,VALID,24.9394,VALID,149,VALID,0.394922,
2012-06-27, 00:53:04,VALID,1009.95,VALID,0,VALID,102.696,VALID,0,VALID,24.9199,VALID,149,VALID,0.227344,
2012-06-27, 00:54:04,VALID,1009.94,VALID,0,VALID,102.948,VALID,0,VALID,24.9023,VALID,149,VALID,0.0957031,
2012-06-27, 00:55:04,VALID,1009.93,VALID,0,VALID,103.154,VALID,0,VALID,24.8828,VALID,149,VALID,0.003125,
2012-06-27, 00:56:04,VALID,1009.92,VALID,0,VALID,103.291,VALID,0,VALID,24.8438,VALID,149,VALID,0.187109,
2012-06-27, 00:57:04,VALID,1009.9,VALID,0,VALID,103.405,VALID,0,VALID,24.8244,VALID,149,VALID,0.103516,
2012-06-27, 00:58:04,VALID,1009.89,VALID,0,VALID,103.558,VALID,0,VALID,24.8049,VALID,149,VALID,0.499219,
2012-06-27, 00:59:04,VALID,1009.87,VALID,0,VALID,103.787,VALID,0,VALID,24.764,VALID,149,VALID,0.382031,
2012-06-27, 01:00:04,VALID,1009.87,VALID,0,VALID,103.954,VALID,0,VALID,24.7659,VALID,149,VALID,0.350391,
2012-06-27, 01:01:04,VALID,1009.85,VALID,0,VALID,104,VALID,0,VALID,24.7659,VALID,146,VALID,0.525,
2012-06-27, 01:02:04,VALID,1009.84,VALID,0,VALID,104,VALID,0,VALID,24.7464,VALID,64,VALID,0.466406,
2012-06-27, 01:03:04,VALID,1009.85,VALID,0,VALID,104,VALID,0,VALID,24.7269,VALID,11,VALID,0.60625,
2012-06-27, 01:04:04,VALID,1009.86,VALID,0,VALID,104,VALID,0,VALID,24.7269,VALID,348,VALID,0.694531,
2012-06-27, 01:05:04,VALID,1009.87,VALID,0,VALID,104,VALID,0,VALID,24.7269,VALID,348,VALID,0.443359,
2012-06-27, 01:06:04,VALID,1009.88,VALID,0,VALID,104,VALID,0,VALID,24.7464,VALID,348,VALID,0.243359,
2012-06-27, 01:07:04,VALID,1009.86,VALID,0,VALID,104,VALID,0,VALID,24.7464,VALID,348,VALID,0.339063,
2012-06-27, 01:08:04,VALID,1009.84,VALID,0,VALID,104,VALID,0,VALID,24.7464,VALID,348,VALID,0.0753906,
2012-06-27, 01:09:04,VALID,1009.87,VALID,0,VALID,104,VALID,0,VALID,24.7464,VALID,348,VALID,0,
2012-06-27, 01:10:04,VALID,1009.86,VALID,0,VALID,104,VALID,0,VALID,24.7055,VALID,348,VALID,0,
2012-06-27, 01:11:04,VALID,1009.86,VALID,0,VALID,104,VALID,0,VALID,24.7269,VALID,348,VALID,0,
2012-06-27, 01:12:04,VALID,1009.85,VALID,0,VALID,104,VALID,0,VALID,24.7074,VALID,348,VALID,0,
2012-06-27, 01:13:04,VALID,1009.83,VALID,0,VALID,104,VALID,0,VALID,24.7074,VALID,348,VALID,0.0191406,
2012-06-27, 01:14:04,VALID,1009.85,VALID,0,VALID,104,VALID,0,VALID,24.6879,VALID,348,VALID,0,
2012-06-27, 01:15:04,VALID,1009.82,VALID,0,VALID,104,VALID,0,VALID,24.7074,VALID,348,VALID,0.0671875,
2012-06-27, 01:16:04,VALID,1009.8,VALID,0,VALID,104,VALID,0,VALID,24.6879,VALID,348,VALID,0.00273437,
2012-06-27, 01:17:04,VALID,1009.8,VALID,0,VALID,104,VALID,0,VALID,24.6879,VALID,348,VALID,0.246484,
2012-06-27, 01:18:04,VALID,1009.82,VALID,0,VALID,104,VALID,0,VALID,24.6879,VALID,348,VALID,0.314844,
2012-06-27, 01:19:04,VALID,1009.79,VALID,0,VALID,104,VALID,0,VALID,24.6684,VALID,348,VALID,0.410156,
2012-06-27, 01:20:04,VALID,1009.82,VALID,0,VALID,104,VALID,0,VALID,24.6489,VALID,348,VALID,0.307813,
2012-06-27, 01:21:04,VALID,1009.82,VALID,0,VALID,104,VALID,0,VALID,24.6276,VALID,348,VALID,0.384375,
2012-06-27, 01:22:04,VALID,1009.83,VALID,0,VALID,104,VALID,0,VALID,24.6294,VALID,348,VALID,0.442578,
2012-06-27, 01:23:04,VALID,1009.82,VALID,0,VALID,104,VALID,0,VALID,24.6294,VALID,348,VALID,0.383984,
2012-06-27, 01:24:04,VALID,1009.81,VALID,0,VALID,104,VALID,0,VALID,24.6099,VALID,348,VALID,0.00351562,
2012-06-27, 01:25:04,VALID,1009.84,VALID,0,VALID,104,VALID,0,VALID,24.5905,VALID,348,VALID,0.352734,
2012-06-27, 01:26:04,VALID,1009.85,VALID,0,VALID,104,VALID,0,VALID,24.571,VALID,348,VALID,0.435547,
2012-06-27, 01:27:04,VALID,1009.84,VALID,0,VALID,104,VALID,0,VALID,24.571,VALID,348,VALID,0.426172,
2012-06-27, 01:28:04,VALID,1009.87,VALID,0,VALID,104,VALID,0,VALID,24.5515,VALID,348,VALID,0.5125,
2012-06-27, 01:29:04,VALID,1009.86,VALID,0,VALID,104,VALID,0,VALID,24.5496,VALID,349,VALID,0.507422,
2012-06-27, 01:30:04,VALID,1009.85,VALID,0,VALID,104,VALID,0,VALID,24.532,VALID,349,VALID,0.178906,
2012-06-27, 01:31:04,VALID,1009.85,VALID,0,VALID,104,VALID,0,VALID,24.532,VALID,38,VALID,0.834766,
2012-06-27, 01:32:04,VALID,1009.82,VALID,0,VALID,104,VALID,0,VALID,24.532,VALID,36,VALID,0.539453,
2012-06-27, 01:33:04,VALID,1009.81,VALID,0,VALID,104,VALID,0,VALID,24.532,VALID,36,VALID,0.6375,
2012-06-27, 01:34:04,VALID,1009.81,VALID,0,VALID,104,VALID,0,VALID,24.532,VALID,36,VALID,0.268359,
2012-06-27, 01:35:04,VALID,1009.77,VALID,0,VALID,104,VALID,0,VALID,24.4911,VALID,36,VALID,0,
2012-06-27, 01:36:04,VALID,1009.74,VALID,0,VALID,104,VALID,0,VALID,24.5125,VALID,36,VALID,0.1875,
2012-06-27, 01:37:04,VALID,1009.74,VALID,0,VALID,104,VALID,0,VALID,24.4717,VALID,36,VALID,0.386328,
2012-06-27, 01:38:04,VALID,1009.74,VALID,0,VALID,104,VALID,0,VALID,24.493,VALID,36,VALID,0.117969,
2012-06-27, 01:39:04,VALID,1009.69,VALID,0,VALID,104,VALID,0,VALID,24.493,VALID,36,VALID,0.0160156,
2012-06-27, 01:40:04,VALID,1009.7,VALID,0,VALID,104,VALID,0,VALID,24.493,VALID,36,VALID,0.437109,
2012-06-27, 01:41:04,VALID,1009.68,VALID,0,VALID,104,VALID,0,VALID,24.5125,VALID,36,VALID,0.009375,
2012-06-27, 01:42:04,VALID,1009.68,VALID,0,VALID,104,VALID,0.112112,VALID,24.5301,VALID,36,VALID,0.230859,
2012-06-27, 01:43:04,VALID,1009.68,VALID,0,VALID,104,VALID,0,VALID,24.5515,VALID,36,VALID,0.235547,
2012-06-27, 01:44:04,VALID,1009.65,VALID,0,VALID,104,VALID,0,VALID,24.5515,VALID,36,VALID,0,
2012-06-27, 01:45:04,VALID,1009.65,VALID,0,VALID,104,VALID,0,VALID,24.532,VALID,36,VALID,0,
2012-06-27, 01:46:04,VALID,1009.67,VALID,0,VALID,104,VALID,0,VALID,24.5106,VALID,36,VALID,0,
2012-06-27, 01:47:04,VALID,1009.6,VALID,0,VALID,104,VALID,0,VALID,24.532,VALID,36,VALID,0.0980469,
2012-06-27, 01:48:04,VALID,1009.62,VALID,0,VALID,104,VALID,0,VALID,24.5301,VALID,36,VALID,0.00351562,
2012-06-27, 01:49:04,VALID,1009.58,VALID,0,VALID,104,VALID,0,VALID,24.5515,VALID,36,VALID,0,
2012-06-27, 01:50:04,VALID,1009.55,VALID,0,VALID,104,VALID,0,VALID,24.5515,VALID,36,VALID,0.202344,
2012-06-27, 01:51:04,VALID,1009.52,VALID,0,VALID,104,VALID,0,VALID,24.5515,VALID,36,VALID,0.403906,
2012-06-27, 01:52:04,VALID,1009.51,VALID,0,VALID,104,VALID,0,VALID,24.532,VALID,36,VALID,0.185547,
2012-06-27, 01:53:04,VALID,1009.52,VALID,0,VALID,104,VALID,0,VALID,24.5515,VALID,36,VALID,0.179688,
2012-06-27, 01:54:04,VALID,1009.53,VALID,0,VALID,104,VALID,0,VALID,24.5125,VALID,36,VALID,0.267188,
2012-06-27, 01:55:04,VALID,1009.53,VALID,0,VALID,104,VALID,0,VALID,24.5125,VALID,36,VALID,0.459375,
2012-06-27, 01:56:04,VALID,1009.55,VALID,0,VALID,104,VALID,0,VALID,24.4735,VALID,36,VALID,0.434766,
2012-06-27, 01:57:04,VALID,1009.56,VALID,0,VALID,104,VALID,0,VALID,24.454,VALID,36,VALID,0,
2012-06-27, 01:58:04,VALID,1009.57,VALID,0,VALID,104,VALID,0,VALID,24.4345,VALID,36,VALID,0,
2012-06-27, 01:59:04,VALID,1009.6,VALID,0,VALID,104,VALID,0,VALID,24.4345,VALID,36,VALID,0.0761719,
2012-06-27, 02:00:04,VALID,1009.6,VALID,0,VALID,104,VALID,0,VALID,24.3956,VALID,36,VALID,0.312109,
2012-06-27, 02:01:04,VALID,1009.61,VALID,0,VALID,104,VALID,0,VALID,24.3761,VALID,36,VALID,0.314063,
2012-06-27, 02:02:04,VALID,1009.6,VALID,0,VALID,104,VALID,0.112112,VALID,24.3566,VALID,36,VALID,0.222266,
2012-06-27, 02:03:04,VALID,1009.59,VALID,0,VALID,104,VALID,0,VALID,24.3158,VALID,36,VALID,0.223828,
2012-06-27, 02:04:04,VALID,1009.61,VALID,0,VALID,104,VALID,0,VALID,24.3176,VALID,36,VALID,0.116016,
2012-06-27, 02:05:04,VALID,1009.58,VALID,0,VALID,104,VALID,0,VALID,24.2768,VALID,36,VALID,0.180469,
2012-06-27, 02:06:04,VALID,1009.57,VALID,0,VALID,104,VALID,0,VALID,24.2786,VALID,36,VALID,0.00585938,
2012-06-27, 02:07:04,VALID,1009.55,VALID,0,VALID,104,VALID,0.112112,VALID,24.2591,VALID,36,VALID,0.208984,
2012-06-27, 02:08:04,VALID,1009.55,VALID,0,VALID,104,VALID,0.112112,VALID,24.2396,VALID,36,VALID,0.198437,
2012-06-27, 02:09:04,VALID,1009.56,VALID,0,VALID,104,VALID,0,VALID,24.1793,VALID,36,VALID,0.158203,
2012-06-27, 02:10:04,VALID,1009.57,VALID,0,VALID,104,VALID,0,VALID,24.1812,VALID,36,VALID,0,
2012-06-27, 02:11:04,VALID,1009.55,VALID,0,VALID,104,VALID,0.112112,VALID,24.1617,VALID,36,VALID,0.000390625,
2012-06-27, 02:12:04,VALID,1009.57,VALID,0,VALID,104,VALID,0,VALID,24.1422,VALID,36,VALID,0.469531,
2012-06-27, 02:13:04,VALID,1009.57,VALID,0,VALID,104,VALID,0,VALID,24.1617,VALID,36,VALID,0.392969,
2012-06-27, 02:14:04,VALID,1009.59,VALID,0,VALID,104,VALID,0,VALID,24.1422,VALID,36,VALID,0.251172,
2012-06-27, 02:15:04,VALID,1009.58,VALID,0,VALID,104,VALID,0,VALID,24.1227,VALID,36,VALID,0.326953,
2012-06-27, 02:16:04,VALID,1009.58,VALID,0,VALID,104,VALID,0,VALID,24.1032,VALID,36,VALID,0.500781,
2012-06-27, 02:17:04,VALID,1009.6,VALID,0,VALID,104,VALID,0,VALID,24.0819,VALID,36,VALID,0.247656,
2012-06-27, 02:18:04,VALID,1009.59,VALID,0,VALID,104,VALID,0,VALID,24.0837,VALID,36,VALID,0.0277344,
2012-06-27, 02:19:04,VALID,1009.6,VALID,0,VALID,104,VALID,0,VALID,24.0429,VALID,36,VALID,0,
2012-06-27, 02:20:04,VALID,1009.63,VALID,0,VALID,104,VALID,0,VALID,24.0837,VALID,36,VALID,0.290234,
2012-06-27, 02:21:04,VALID,1009.63,VALID,0,VALID,104,VALID,0,VALID,24.0643,VALID,36,VALID,0.104687,
2012-06-27, 02:22:04,VALID,1009.64,VALID,0,VALID,104,VALID,0.112112,VALID,24.0448,VALID,36,VALID,0.0503906,
2012-06-27, 02:23:04,VALID,1009.65,VALID,0,VALID,104,VALID,0,VALID,24.0448,VALID,36,VALID,0.0210938,
2012-06-27, 02:24:04,VALID,1009.65,VALID,0,VALID,104,VALID,0,VALID,24.0448,VALID,36,VALID,0,
2012-06-27, 02:25:04,VALID,1009.66,VALID,0,VALID,104,VALID,0,VALID,24.0058,VALID,36,VALID,0,
2012-06-27, 02:26:04,VALID,1009.65,VALID,0,VALID,104,VALID,0,VALID,23.9863,VALID,36,VALID,0,
2012-06-27, 02:27:04,VALID,1009.62,VALID,0,VALID,104,VALID,0,VALID,23.965,VALID,36,VALID,0,
2012-06-27, 02:28:04,VALID,1009.64,VALID,0,VALID,104,VALID,0,VALID,23.9863,VALID,36,VALID,0,
2012-06-27, 02:29:04,VALID,1009.66,VALID,0,VALID,104,VALID,0,VALID,23.9473,VALID,36,VALID,0,
2012-06-27, 02:30:04,VALID,1009.64,VALID,0,VALID,104,VALID,0,VALID,23.9278,VALID,36,VALID,0.434766,
2012-06-27, 02:31:04,VALID,1009.67,VALID,0,VALID,104,VALID,0,VALID,23.9473,VALID,36,VALID,0.432031,
2012-06-27, 02:32:04,VALID,1009.71,VALID,0,VALID,104,VALID,0.112112,VALID,23.9473,VALID,36,VALID,0.566797,
2012-06-27, 02:33:04,VALID,1009.72,VALID,0,VALID,104,VALID,0,VALID,23.9278,VALID,36,VALID,0.473828,
2012-06-27, 02:34:04,VALID,1009.73,VALID,0,VALID,104,VALID,0,VALID,23.9473,VALID,36,VALID,0.473047,
2012-06-27, 02:35:04,VALID,1009.71,VALID,0,VALID,104,VALID,0,VALID,23.9473,VALID,36,VALID,0.445313,
2012-06-27, 02:36:04,VALID,1009.73,VALID,0,VALID,104,VALID,0,VALID,23.9668,VALID,37,VALID,0.596484,
2012-06-27, 02:37:04,VALID,1009.73,VALID,0,VALID,104,VALID,0,VALID,23.9455,VALID,38,VALID,0.782031,
2012-06-27, 02:38:04,VALID,1009.72,VALID,0,VALID,104,VALID,0,VALID,23.9863,VALID,28,VALID,1.07461,
2012-06-27, 02:39:04,VALID,1009.7,VALID,0,VALID,104,VALID,0,VALID,23.9863,VALID,20,VALID,0.788672,
2012-06-27, 02:40:04,VALID,1009.72,VALID,0,VALID,104,VALID,0,VALID,23.9863,VALID,30,VALID,0.313672,
2012-06-27, 02:41:04,VALID,1009.74,VALID,0,VALID,104,VALID,0,VALID,23.9863,VALID,30,VALID,0.525,
2012-06-27, 02:42:04,VALID,1009.72,VALID,0,VALID,104,VALID,0,VALID,23.9863,VALID,30,VALID,0.328125,
2012-06-27, 02:43:04,VALID,1009.75,VALID,0,VALID,104,VALID,0,VALID,24.0058,VALID,30,VALID,0.810547,
2012-06-27, 02:44:04,VALID,1009.75,VALID,0,VALID,104,VALID,0,VALID,24.0058,VALID,28,VALID,0.882813,
2012-06-27, 02:45:04,VALID,1009.75,VALID,0,VALID,104,VALID,0,VALID,24.0058,VALID,27,VALID,0.491016,
2012-06-27, 02:46:04,VALID,1009.75,VALID,0,VALID,104,VALID,0,VALID,23.9863,VALID,27,VALID,0.305859,
2012-06-27, 02:47:04,VALID,1009.74,VALID,0,VALID,104,VALID,0,VALID,23.9863,VALID,27,VALID,0.496094,
2012-06-27, 02:48:04,VALID,1009.74,VALID,0,VALID,104,VALID,0,VALID,24.0058,VALID,39,VALID,0.499219,
2012-06-27, 02:49:04,VALID,1009.68,VALID,0,VALID,104,VALID,0,VALID,24.0058,VALID,39,VALID,0.561328,
2012-06-27, 02:50:04,VALID,1009.66,VALID,0,VALID,104,VALID,0,VALID,24.0253,VALID,39,VALID,0.3375,
2012-06-27, 02:51:04,VALID,1009.7,VALID,0,VALID,104,VALID,0.112112,VALID,24.0253,VALID,39,VALID,0,
2012-06-27, 02:52:04,VALID,1009.69,VALID,0,VALID,104,VALID,0,VALID,24.004,VALID,39,VALID,0.134766,
2012-06-27, 02:53:04,VALID,1009.72,VALID,0,VALID,104,VALID,0,VALID,24.0643,VALID,39,VALID,0.278906,
2012-06-27, 02:54:04,VALID,1009.74,VALID,0,VALID,104,VALID,0,VALID,24.0643,VALID,39,VALID,0.0367187,
2012-06-27, 02:55:04,VALID,1009.76,VALID,0,VALID,104,VALID,0,VALID,24.0429,VALID,39,VALID,0.367578,
2012-06-27, 02:56:04,VALID,1009.77,VALID,0,VALID,104,VALID,0.112112,VALID,24.0643,VALID,39,VALID,0.265625,
2012-06-27, 02:57:04,VALID,1009.72,VALID,0,VALID,104,VALID,0,VALID,24.0837,VALID,38,VALID,0.868359,
2012-06-27, 02:58:04,VALID,1009.73,VALID,0,VALID,104,VALID,0.112112,VALID,24.0429,VALID,36,VALID,0.343359,
2012-06-27, 02:59:04,VALID,1009.73,VALID,0,VALID,104,VALID,0,VALID,24.0643,VALID,36,VALID,0.465234,
2012-06-27, 03:00:04,VALID,1009.7,VALID,0,VALID,104,VALID,0,VALID,24.0856,VALID,36,VALID,0.419531,
2012-06-27, 03:01:04,VALID,1009.67,VALID,0,VALID,104,VALID,0,VALID,24.0448,VALID,36,VALID,0.409766,
2012-06-27, 03:02:04,VALID,1009.69,VALID,0,VALID,104,VALID,0,VALID,24.0837,VALID,58,VALID,0.524609,
2012-06-27, 03:03:04,VALID,1009.66,VALID,0,VALID,104,VALID,0.112112,VALID,24.0837,VALID,37,VALID,0.610547,
2012-06-27, 03:04:04,VALID,1009.65,VALID,0,VALID,104,VALID,0.112112,VALID,24.1032,VALID,37,VALID,0.194531,
2012-06-27, 03:05:04,VALID,1009.63,VALID,0,VALID,104,VALID,0,VALID,24.0624,VALID,37,VALID,0.455859,
2012-06-27, 03:06:04,VALID,1009.62,VALID,0,VALID,104,VALID,0.112112,VALID,24.0643,VALID,37,VALID,0.485156,
2012-06-27, 03:07:04,VALID,1009.63,VALID,0,VALID,104,VALID,0,VALID,24.0448,VALID,37,VALID,0.532422,
2012-06-27, 03:08:04,VALID,1009.65,VALID,0,VALID,104,VALID,0,VALID,24.004,VALID,37,VALID,0.416406,
2012-06-27, 03:09:04,VALID,1009.65,VALID,0,VALID,104,VALID,0,VALID,23.9863,VALID,37,VALID,0.266016,
2012-06-27, 03:10:04,VALID,1009.69,VALID,0,VALID,104,VALID,0,VALID,24.0271,VALID,37,VALID,0.0078125,
2012-06-27, 03:11:04,VALID,1009.69,VALID,0,VALID,104,VALID,0,VALID,24.0271,VALID,37,VALID,0.00351562,
2012-06-27, 03:12:04,VALID,1009.71,VALID,0,VALID,104,VALID,0,VALID,24.0466,VALID,37,VALID,0,
2012-06-27, 03:13:04,VALID,1009.7,VALID,0,VALID,104,VALID,0,VALID,24.0466,VALID,37,VALID,0,
2012-06-27, 03:14:04,VALID,1009.67,VALID,0,VALID,104,VALID,0,VALID,24.0448,VALID,37,VALID,0.071875,
2012-06-27, 03:15:04,VALID,1009.66,VALID,0,VALID,104,VALID,0,VALID,24.0466,VALID,37,VALID,0,
2012-06-27, 03:16:04,VALID,1009.66,VALID,0,VALID,104,VALID,0,VALID,24.0661,VALID,37,VALID,0,
2012-06-27, 03:17:04,VALID,1009.66,VALID,0,VALID,104,VALID,0,VALID,24.0856,VALID,37,VALID,0,
2012-06-27, 03:18:04,VALID,1009.69,VALID,0,VALID,104,VALID,0,VALID,24.0643,VALID,37,VALID,0,
2012-06-27, 03:19:04,VALID,1009.68,VALID,0,VALID,104,VALID,0,VALID,24.0856,VALID,37,VALID,0,
2012-06-27, 03:20:04,VALID,1009.76,VALID,0,VALID,104,VALID,0,VALID,24.0661,VALID,37,VALID,0,
2012-06-27, 03:21:04,VALID,1009.76,VALID,0,VALID,104,VALID,0,VALID,24.0661,VALID,37,VALID,0,
2012-06-27, 03:22:04,VALID,1009.77,VALID,0,VALID,104,VALID,0,VALID,24.0661,VALID,37,VALID,0.455469,
2012-06-27, 03:23:04,VALID,1009.76,VALID,0,VALID,104,VALID,0,VALID,24.0856,VALID,37,VALID,0.324219,
2012-06-27, 03:24:04,VALID,1009.74,VALID,0,VALID,104,VALID,0,VALID,24.0837,VALID,37,VALID,0.142578,
2012-06-27, 03:25:04,VALID,1009.74,VALID,0,VALID,104,VALID,0.112112,VALID,24.1032,VALID,37,VALID,0,
2012-06-27, 03:26:04,VALID,1009.74,VALID,0,VALID,104,VALID,0,VALID,24.1032,VALID,37,VALID,0.0664063,
2012-06-27, 03:27:04,VALID,1009.75,VALID,0,VALID,104,VALID,0.112112,VALID,24.1032,VALID,37,VALID,0,
2012-06-27, 03:28:04,VALID,1009.77,VALID,0,VALID,104,VALID,0.112112,VALID,24.0624,VALID,37,VALID,0,
2012-06-27, 03:29:04,VALID,1009.82,VALID,0,VALID,104,VALID,0,VALID,24.0643,VALID,37,VALID,0,
2012-06-27, 03:30:04,VALID,1009.84,VALID,0,VALID,104,VALID,0,VALID,24.0661,VALID,37,VALID,0.281641,
2012-06-27, 03:31:04,VALID,1009.88,VALID,0,VALID,104,VALID,0,VALID,24.0448,VALID,37,VALID,0.0449219,
2012-06-27, 03:32:04,VALID,1009.9,VALID,0,VALID,104,VALID,0,VALID,23.9845,VALID,37,VALID,0.2,
2012-06-27, 03:33:04,VALID,1009.9,VALID,0,VALID,104,VALID,0.112112,VALID,23.9863,VALID,37,VALID,0.429688,
2012-06-27, 03:34:04,VALID,1009.92,VALID,0,VALID,104,VALID,0,VALID,23.9863,VALID,37,VALID,0.0304688,
2012-06-27, 03:35:04,VALID,1009.94,VALID,0,VALID,104,VALID,0,VALID,23.9863,VALID,37,VALID,0,
2012-06-27, 03:36:04,VALID,1009.95,VALID,0,VALID,104,VALID,0,VALID,23.9668,VALID,37,VALID,0,
2012-06-27, 03:37:04,VALID,1009.93,VALID,0,VALID,104,VALID,0.112112,VALID,23.965,VALID,37,VALID,0,
2012-06-27, 03:38:04,VALID,1009.92,VALID,0,VALID,104,VALID,0,VALID,23.9863,VALID,37,VALID,0.49375,
2012-06-27, 03:39:04,VALID,1009.95,VALID,0,VALID,104,VALID,0,VALID,24.0253,VALID,37,VALID,0.529297,
2012-06-27, 03:40:04,VALID,1009.93,VALID,0,VALID,104,VALID,0,VALID,24.0253,VALID,37,VALID,0.310937,
2012-06-27, 03:41:04,VALID,1009.92,VALID,0,VALID,104,VALID,0,VALID,24.0253,VALID,37,VALID,0.253516,
2012-06-27, 03:42:04,VALID,1009.9,VALID,0,VALID,104,VALID,0.112112,VALID,24.0253,VALID,37,VALID,0.246875,
2012-06-27, 03:43:04,VALID,1009.88,VALID,0,VALID,104,VALID,0.112112,VALID,24.0235,VALID,37,VALID,0.372266,
2012-06-27, 03:44:04,VALID,1009.86,VALID,0,VALID,104,VALID,0,VALID,24.0253,VALID,37,VALID,0.337109,
2012-06-27, 03:45:04,VALID,1009.85,VALID,0,VALID,104,VALID,0,VALID,24.0253,VALID,37,VALID,0.222266,
2012-06-27, 03:46:04,VALID,1009.89,VALID,0,VALID,104,VALID,0,VALID,23.9845,VALID,37,VALID,0.195703,
2012-06-27, 03:47:04,VALID,1009.9,VALID,0,VALID,104,VALID,0,VALID,24.0058,VALID,37,VALID,0,
2012-06-27, 03:48:04,VALID,1009.91,VALID,0,VALID,104,VALID,0.112112,VALID,24.0058,VALID,37,VALID,0,
2012-06-27, 03:49:04,VALID,1009.92,VALID,0,VALID,104,VALID,0,VALID,24.0058,VALID,37,VALID,0.310937,
2012-06-27, 03:50:04,VALID,1009.92,VALID,0,VALID,104,VALID,0.112112,VALID,24.004,VALID,37,VALID,0.457031,
2012-06-27, 03:51:04,VALID,1009.93,VALID,0,VALID,104,VALID,0,VALID,24.004,VALID,37,VALID,0.521875,
2012-06-27, 03:52:04,VALID,1009.96,VALID,0,VALID,104,VALID,0.112112,VALID,24.004,VALID,37,VALID,0.31875,
2012-06-27, 03:53:04,VALID,1009.98,VALID,0,VALID,104,VALID,0,VALID,24.0253,VALID,37,VALID,0,
2012-06-27, 03:54:04,VALID,1010,VALID,0,VALID,104,VALID,0,VALID,24.0448,VALID,37,VALID,0.159766,